This is the latest recevied weather packets stored in our database for station/object IZ1UQG-N2. If no packets are shown the sender has not sent any weather packets the latest 10 day(s).
| Time | Temp. | Humidity | Pressure | Rain* | Wind** | Luminosity | Snow |
|---|---|---|---|---|---|---|---|
| 1777560797 | 18.33° C | 47% | 1020.2 hPa | 0 mm | - | 232 W/m² | - |
| 1777560787 | 18.33° C | 47% | 1020.2 hPa | 0 mm | - | 232 W/m² | - |
| 1777560737 | 18.33° C | 46% | 1020.2 hPa | 0 mm | - | 232 W/m² | - |
| 1777560677 | 18.33° C | 46% | 1020.3 hPa | 0 mm | - | 230 W/m² | - |
| 1777560617 | 18.33° C | 46% | 1020.2 hPa | 0 mm | - | 236 W/m² | - |
| 1777560606 | 18.33° C | 46% | 1020.2 hPa | 0 mm | - | 236 W/m² | - |
| 1777560557 | 18.33° C | 47% | 1020.2 hPa | 0 mm | - | 262 W/m² | - |
| 1777560498 | 18.33° C | 47% | 1020.2 hPa | 0 mm | - | 255 W/m² | - |
| 1777560438 | 18.33° C | 47% | 1020.3 hPa | 0 mm | - | 483 W/m² | - |
| 1777560427 | 18.33° C | 47% | 1020.3 hPa | 0 mm | - | 483 W/m² | - |
| 1777560377 | 18.33° C | 47% | 1020.3 hPa | 0 mm | - | 536 W/m² | - |
| 1777560317 | 18.33° C | 47% | 1020.3 hPa | 0 mm | - | 418 W/m² | - |
| 1777560256 | 18.33° C | 47% | 1020.3 hPa | 0 mm | - | 606 W/m² | - |
| 1777560248 | 18.33° C | 47% | 1020.3 hPa | 0 mm | - | 606 W/m² | - |
| 1777560197 | 18.33° C | 47% | 1020.3 hPa | 0 mm | - | 666 W/m² | - |
| 1777560137 | 18.33° C | 47% | 1020.4 hPa | 0 mm | - | 512 W/m² | - |
| 1777560077 | 18.33° C | 47% | 1020.2 hPa | 0 mm | - | 619 W/m² | - |
| 1777560068 | 18.33° C | 47% | 1020.2 hPa | 0 mm | - | 619 W/m² | - |
| 1777560018 | 18.33° C | 46% | 1020.4 hPa | 0 mm | - | 580 W/m² | - |
| 1777559958 | 18.33° C | 46% | 1020.4 hPa | 0 mm | - | 469 W/m² | - |
| 1777559897 | 18.33° C | 46% | 1020.4 hPa | 0 mm | - | 631 W/m² | - |
| 1777559888 | 18.33° C | 46% | 1020.4 hPa | 0 mm | - | 631 W/m² | - |
| 1777559838 | 18.33° C | 46% | 1020.3 hPa | 0 mm | - | 661 W/m² | - |
| 1777559778 | 18.33° C | 47% | 1020.4 hPa | 0 mm | - | 645 W/m² | - |
| 1777559718 | 18.33° C | 47% | 1020.4 hPa | 0 mm | - | 285 W/m² | - |
* Rain latest hour (hover to see other rain measurements)
** Current wind speed in m/s (hover to see current wind gust speed)